"datetime","temp","dp","rain_mm","uv","solar","mb","wind_mph","gust_mph","windchill","rh"
"2013-11-30 00:00:00",5.2,3.5,0.0,0.0,0,1022.9,0,1,"",89
"2013-11-30 00:01:00",5.2,3.5,0.0,0.0,0,1022.9,0,1,"",89
"2013-11-30 00:02:00",5.2,3.5,0.0,0.0,0,1023.0,1,3,"",89
"2013-11-30 00:03:00",5.2,3.5,0.0,0.0,0,1022.9,1,1,"",89
"2013-11-30 00:04:00",5.2,3.5,0.0,0.0,0,1023.0,0,0,"",89
"2013-11-30 00:05:00",5.2,3.5,0.0,0.0,0,1023.0,0,1,"",89
"2013-11-30 00:06:00",5.2,3.5,0.0,0.0,0,1023.0,0,0,"",89
"2013-11-30 00:07:00",5.2,3.5,0.0,0.0,0,1022.9,0,1,"",89
"2013-11-30 00:08:00",5.2,3.5,0.0,0.0,0,1023.0,0,1,"",89
"2013-11-30 00:09:00",5.2,3.5,0.0,0.0,0,1022.9,0,0,"",89
"2013-11-30 00:10:00",5.1,3.5,0.0,0.0,0,1023.0,0,1,"",89
"2013-11-30 00:11:00",5.1,3.5,0.0,0.0,0,1022.9,0,1,"",89
"2013-11-30 00:12:00",5.1,3.5,0.0,0.0,0,1022.9,0,0,"",89
"2013-11-30 00:13:00",5.1,3.5,0.0,0.0,0,1022.9,0,1,"",89
"2013-11-30 00:14:00",5.1,3.5,0.0,0.0,0,1022.9,0,1,"",89
"2013-11-30 00:15:00",5.1,3.5,0.0,0.0,0,1022.9,0,1,"",89
"2013-11-30 00:16:00",5.1,3.4,0.0,0.0,0,1022.9,0,3,"",89
"2013-11-30 00:17:00",5.1,3.4,0.0,0.0,0,1022.9,0,3,"",89
"2013-11-30 00:18:00",5.1,3.4,0.0,0.0,0,1022.9,1,1,"",89
"2013-11-30 00:19:00",5.1,3.4,0.0,0.0,0,1022.9,1,3,"",89
"2013-11-30 00:20:00",5.1,3.4,0.0,0.0,0,1022.9,0,1,"",89
"2013-11-30 00:21:00",5.1,3.4,0.0,0.0,0,1022.9,0,1,"",89
"2013-11-30 00:22:00",5.1,3.4,0.0,0.0,0,1022.9,0,1,"",89
"2013-11-30 00:23:00",5.1,3.4,0.0,0.0,0,1022.9,0,1,"",89
"2013-11-30 00:24:00",5.1,3.4,0.0,0.0,0,1022.9,0,1,"",89
"2013-11-30 00:25:00",5.1,3.4,0.0,0.0,0,1022.9,0,3,"",89
"2013-11-30 00:26:00",5.1,3.4,0.0,0.0,0,1022.9,0,3,"",89
"2013-11-30 00:27:00",5.1,3.4,0.0,0.0,0,1022.9,1,3,"",89
"2013-11-30 00:28:00",5.1,3.4,0.0,0.0,0,1022.9,1,3,"",89
"2013-11-30 00:29:00",5.1,3.4,0.0,0.0,0,1022.9,1,1,"",89
"2013-11-30 00:30:00",5.1,3.4,0.0,0.0,0,1022.9,0,3,"",89
"2013-11-30 00:31:00",5.1,3.4,0.0,0.0,0,1022.9,1,3,"",89
"2013-11-30 00:32:00",5.1,3.4,0.0,0.0,0,1023.0,1,1,"",89
"2013-11-30 00:33:00",5.1,3.4,0.0,0.0,0,1023.0,0,1,"",89
"2013-11-30 00:34:00",5.1,3.4,0.0,0.0,0,1023.0,0,0,"",89
"2013-11-30 00:35:00",5.1,3.4,0.0,0.0,0,1023.0,0,1,"",89
"2013-11-30 00:36:00",5.1,3.4,0.0,0.0,0,1023.0,0,1,"",89
"2013-11-30 00:37:00",5.1,3.4,0.0,0.0,0,1023.0,0,1,"",89
"2013-11-30 00:38:00",5.1,3.4,0.0,0.0,0,1023.0,1,1,"",89
"2013-11-30 00:39:00",5.1,3.4,0.0,0.0,0,1023.0,0,3,"",89
"2013-11-30 00:40:00",5.1,3.4,0.0,0.0,0,1023.0,1,3,"",89
"2013-11-30 00:41:00",5.1,3.4,0.0,0.0,0,1023.0,1,3,"",89
"2013-11-30 00:42:00",5.1,3.4,0.0,0.0,0,1023.1,0,1,"",89
"2013-11-30 00:43:00",5.1,3.4,0.0,0.0,0,1023.1,0,0,"",89
"2013-11-30 00:44:00",5.1,3.4,0.0,0.0,0,1023.0,0,0,"",89
"2013-11-30 00:45:00",5.1,3.4,0.0,0.0,0,1023.0,0,1,"",89
"2013-11-30 00:46:00",5.1,3.4,0.0,0.0,0,1023.0,0,1,"",89
"2013-11-30 00:47:00",5.1,3.4,0.0,0.0,0,1023.0,0,1,"",89
"2013-11-30 00:48:00",5.0,3.4,0.0,0.0,0,1022.9,0,1,"",89
"2013-11-30 00:49:00",5.0,3.4,0.0,0.0,0,1023.0,0,1,"",89
"2013-11-30 00:50:00",5.0,3.3,0.0,0.0,0,1022.9,0,1,"",89
"2013-11-30 00:51:00",5.0,3.3,0.0,0.0,0,1023.0,0,1,"",89
"2013-11-30 00:52:00",5.0,3.3,0.0,0.0,0,1023.0,0,1,"",89
"2013-11-30 00:53:00",5.0,3.3,0.0,0.0,0,1023.0,0,1,"",89
"2013-11-30 00:54:00",5.0,3.5,0.0,0.0,0,1023.0,0,1,"",90
"2013-11-30 00:55:00",5.0,3.3,0.0,0.0,0,1023.0,0,0,"",89
"2013-11-30 00:56:00",5.0,3.5,0.0,0.0,0,1023.1,0,0,"",90
"2013-11-30 00:57:00",5.0,3.5,0.0,0.0,0,1023.1,0,1,"",90
"2013-11-30 00:58:00",5.0,3.5,0.0,0.0,0,1023.1,0,1,"",90
"2013-11-30 00:59:00",5.0,3.5,0.0,0.0,0,1023.1,0,1,"",90
"2013-11-30 01:00:00",5.0,3.5,0.0,0.0,0,1023.1,0,1,"",90
"2013-11-30 01:01:00",4.9,3.4,0.0,0.0,0,1023.0,0,1,"",90
"2013-11-30 01:02:00",4.9,3.4,0.0,0.0,0,1023.0,0,1,"",90
"2013-11-30 01:03:00",4.9,3.4,0.0,0.0,0,1023.0,0,1,"",90
"2013-11-30 01:04:00",4.9,3.4,0.0,0.0,0,1023.0,0,1,"",90
"2013-11-30 01:05:00",4.9,3.4,0.0,0.0,0,1023.0,0,1,"",90
"2013-11-30 01:06:00",4.9,3.4,0.0,0.0,0,1023.0,0,1,"",90
"2013-11-30 01:07:00",4.9,3.4,0.0,0.0,0,1023.0,0,0,"",90
"2013-11-30 01:08:00",4.9,3.4,0.0,0.0,0,1023.0,0,1,"",90
"2013-11-30 01:09:00",4.9,3.4,0.0,0.0,0,1023.0,0,1,"",90
"2013-11-30 01:10:00",4.9,3.4,0.0,0.0,0,1023.0,0,1,"",90
"2013-11-30 01:11:00",4.9,3.4,0.0,0.0,0,1022.9,0,0,"",90
"2013-11-30 01:12:00",4.9,3.4,0.0,0.0,0,1023.0,0,0,"",90
"2013-11-30 01:13:00",4.9,3.4,0.0,0.0,0,1022.9,0,0,"",90
"2013-11-30 01:14:00",4.8,3.3,0.0,0.0,0,1022.9,0,0,"",90
"2013-11-30 01:15:00",4.8,3.3,0.0,0.0,0,1022.9,0,0,"",90
"2013-11-30 01:16:00",4.8,3.3,0.0,0.0,0,1022.9,0,0,"",90
"2013-11-30 01:17:00",4.8,3.3,0.0,0.0,0,1022.9,0,0,"",90
"2013-11-30 01:18:00",4.8,3.3,0.0,0.0,0,1022.9,0,0,"",90
"2013-11-30 01:19:00",4.8,3.3,0.0,0.0,0,1022.9,0,0,"",90
"2013-11-30 01:20:00",4.8,3.3,0.0,0.0,0,1022.9,0,1,"",90
"2013-11-30 01:21:00",4.8,3.3,0.0,0.0,0,1022.9,1,1,"",90
"2013-11-30 01:22:00",4.8,3.3,0.0,0.0,0,1022.9,0,0,"",90
"2013-11-30 01:23:00",4.8,3.3,0.0,0.0,0,1022.9,0,1,"",90
"2013-11-30 01:24:00",4.8,3.3,0.0,0.0,0,1022.9,0,0,"",90
"2013-11-30 01:25:00",4.8,3.3,0.0,0.0,0,1022.9,0,1,"",90
"2013-11-30 01:26:00",4.8,3.3,0.0,0.0,0,1022.9,1,3,"",90
"2013-11-30 01:27:00",4.8,3.4,0.0,0.0,0,1022.9,0,1,"",91
"2013-11-30 01:28:00",4.8,3.3,0.0,0.0,0,1022.9,0,1,"",90
"2013-11-30 01:29:00",4.8,3.3,0.0,0.0,0,1022.9,0,1,"",90
"2013-11-30 01:30:00",4.8,3.4,0.0,0.0,0,1022.9,0,0,"",91
"2013-11-30 01:31:00",4.7,3.4,0.0,0.0,0,1022.9,0,1,"",91
"2013-11-30 01:32:00",4.7,3.4,0.0,0.0,0,1022.9,0,1,"",91
"2013-11-30 01:33:00",4.7,3.4,0.0,0.0,0,1022.9,0,0,"",91
"2013-11-30 01:34:00",4.7,3.4,0.0,0.0,0,1023.0,0,1,"",91
"2013-11-30 01:35:00",4.7,3.4,0.0,0.0,0,1023.0,0,1,"",91
"2013-11-30 01:36:00",4.7,3.4,0.0,0.0,0,1023.0,0,1,"",91
"2013-11-30 01:37:00",4.7,3.4,0.0,0.0,0,1023.0,0,1,"",91
"2013-11-30 01:38:00",4.7,3.4,0.0,0.0,0,1023.0,0,1,"",91
"2013-11-30 01:39:00",4.7,3.3,0.0,0.0,0,1023.0,0,3,"",91
"2013-11-30 01:40:00",4.7,3.3,0.0,0.0,0,1023.0,1,3,"",91
"2013-11-30 01:41:00",4.7,3.3,0.0,0.0,0,1023.0,1,3,"",91
"2013-11-30 01:42:00",4.7,3.4,0.0,0.0,0,1023.0,0,0,"",91
"2013-11-30 01:43:00",4.7,3.3,0.0,0.0,0,1023.0,0,1,"",91
"2013-11-30 01:44:00",4.7,3.3,0.0,0.0,0,1023.0,0,3,"",91
"2013-11-30 01:45:00",4.7,3.3,0.0,0.0,0,1023.0,1,3,"",91
"2013-11-30 01:46:00",4.7,3.3,0.0,0.0,0,1022.9,1,1,"",91
"2013-11-30 01:47:00",4.7,3.3,0.0,0.0,0,1022.9,1,3,"",91
"2013-11-30 01:48:00",4.7,3.5,0.0,0.0,0,1022.9,1,1,"",92
"2013-11-30 01:49:00",4.7,3.5,0.0,0.0,0,1022.9,0,1,"",92
"2013-11-30 01:50:00",4.7,3.5,0.0,0.0,0,1022.9,0,1,"",92
"2013-11-30 01:51:00",4.7,3.5,0.0,0.0,0,1022.9,0,1,"",92
"2013-11-30 01:52:00",4.7,3.5,0.0,0.0,0,1022.9,0,1,"",92
"2013-11-30 01:53:00",4.7,3.5,0.0,0.0,0,1023.0,0,3,"",92
"2013-11-30 01:54:00",4.7,3.6,0.0,0.0,0,1023.0,1,1,"",93
"2013-11-30 01:55:00",4.8,3.6,0.0,0.0,0,1023.0,1,3,"",92
"2013-11-30 01:56:00",4.8,3.6,0.0,0.0,0,1023.0,1,3,"",92
"2013-11-30 01:57:00",4.8,3.6,0.0,0.0,0,1023.0,0,1,"",92
"2013-11-30 01:58:00",4.8,3.6,0.0,0.0,0,1023.0,0,1,"",92
"2013-11-30 01:59:00",4.8,3.6,0.0,0.0,0,1023.0,0,1,"",92
"2013-11-30 02:00:00",4.8,3.6,0.0,0.0,0,1023.0,0,1,"",92
"2013-11-30 02:01:00",4.8,3.6,0.0,0.0,0,1023.0,0,1,"",92
"2013-11-30 02:02:00",4.8,3.6,0.0,0.0,0,1023.0,0,1,"",92
"2013-11-30 02:03:00",4.8,3.6,0.0,0.0,0,1023.0,0,1,"",92
"2013-11-30 02:04:00",4.8,3.6,0.0,0.0,0,1023.0,0,1,"",92
"2013-11-30 02:05:00",4.8,3.6,0.0,0.0,0,1023.0,0,1,"",92
"2013-11-30 02:06:00",4.8,3.5,0.0,0.0,0,1023.0,0,1,"",91
"2013-11-30 02:07:00",4.8,3.5,0.0,0.0,0,1023.1,1,3,"",91
"2013-11-30 02:08:00",4.8,3.5,0.0,0.0,0,1023.0,1,3,"",91
"2013-11-30 02:09:00",4.8,3.5,0.0,0.0,0,1023.0,0,1,"",91
"2013-11-30 02:10:00",4.8,3.5,0.0,0.0,0,1023.0,0,1,"",91
"2013-11-30 02:11:00",4.8,3.5,0.0,0.0,0,1023.0,0,1,"",91
"2013-11-30 02:12:00",4.8,3.5,0.0,0.0,0,1023.0,0,1,"",91
"2013-11-30 02:13:00",4.8,3.5,0.0,0.0,0,1023.0,0,3,"",91
"2013-11-30 02:14:00",4.8,3.5,0.0,0.0,0,1023.0,0,1,"",91
"2013-11-30 02:15:00",4.8,3.5,0.0,0.0,0,1023.0,0,1,"",91
"2013-11-30 02:16:00",4.8,3.5,0.0,0.0,0,1023.1,0,0,"",91
"2013-11-30 02:17:00",4.8,3.5,0.0,0.0,0,1023.1,0,3,"",91
"2013-11-30 02:18:00",4.8,3.5,0.0,0.0,0,1023.1,0,1,"",91
"2013-11-30 02:19:00",4.8,3.5,0.0,0.0,0,1023.0,0,1,"",91
"2013-11-30 02:20:00",4.8,3.5,0.0,0.0,0,1023.1,0,1,"",91
"2013-11-30 02:21:00",4.8,3.5,0.0,0.0,0,1023.0,0,1,"",91
"2013-11-30 02:22:00",4.8,3.5,0.0,0.0,0,1023.0,0,1,"",91
"2013-11-30 02:23:00",4.8,3.5,0.0,0.0,0,1023.0,0,3,"",91
"2013-11-30 02:24:00",4.8,3.5,0.0,0.0,0,1022.9,1,3,"",91
"2013-11-30 02:25:00",4.8,3.5,0.0,0.0,0,1022.9,0,1,"",91
"2013-11-30 02:26:00",4.8,3.4,0.0,0.0,0,1022.9,0,0,"",91
"2013-11-30 02:27:00",4.8,3.4,0.0,0.0,0,1022.9,0,1,"",91
"2013-11-30 02:28:00",4.8,3.4,0.0,0.0,0,1022.9,0,0,"",91
"2013-11-30 02:29:00",4.8,3.4,0.0,0.0,0,1022.9,0,1,"",91
"2013-11-30 02:30:00",4.8,3.4,0.0,0.0,0,1022.9,0,1,"",91
"2013-11-30 02:31:00",4.8,3.4,0.0,0.0,0,1022.9,0,3,"",91
"2013-11-30 02:32:00",4.8,3.4,0.0,0.0,0,1023.0,1,1,"",91
"2013-11-30 02:33:00",4.8,3.4,0.0,0.0,0,1023.0,0,1,"",91
"2013-11-30 02:34:00",4.8,3.4,0.0,0.0,0,1023.0,0,1,"",91
"2013-11-30 02:35:00",4.8,3.4,0.0,0.0,0,1023.1,0,1,"",91
"2013-11-30 02:36:00",4.8,3.4,0.0,0.0,0,1023.1,0,1,"",91
"2013-11-30 02:37:00",4.8,3.4,0.0,0.0,0,1023.1,0,0,"",91
"2013-11-30 02:38:00",4.8,3.4,0.0,0.0,0,1023.1,0,1,"",91
"2013-11-30 02:39:00",4.8,3.4,0.0,0.0,0,1023.1,0,1,"",91
"2013-11-30 02:40:00",4.7,3.4,0.0,0.0,0,1023.1,0,1,"",91
"2013-11-30 02:41:00",4.7,3.4,0.0,0.0,0,1023.1,0,0,"",91
"2013-11-30 02:42:00",4.7,3.4,0.0,0.0,0,1023.1,0,1,"",91
"2013-11-30 02:43:00",4.7,3.4,0.0,0.0,0,1023.1,0,1,"",91
"2013-11-30 02:44:00",4.7,3.2,0.0,0.0,0,1023.1,0,1,"",90
"2013-11-30 02:45:00",4.7,3.4,0.0,0.0,0,1023.1,0,1,"",91
"2013-11-30 02:46:00",4.7,3.2,0.0,0.0,0,1023.2,0,1,"",90
"2013-11-30 02:47:00",4.7,3.2,0.0,0.0,0,1023.2,0,1,"",90
"2013-11-30 02:48:00",4.7,3.2,0.0,0.0,0,1023.2,0,1,"",90
"2013-11-30 02:49:00",4.7,3.2,0.0,0.0,0,1023.2,0,0,"",90
"2013-11-30 02:50:00",4.7,3.2,0.0,0.0,0,1023.2,0,0,"",90
"2013-11-30 02:51:00",4.7,3.2,0.0,0.0,0,1023.2,0,3,"",90
"2013-11-30 02:52:00",4.7,3.2,0.0,0.0,0,1023.2,1,1,"",90
"2013-11-30 02:53:00",4.7,3.2,0.0,0.0,0,1023.2,0,1,"",90
"2013-11-30 02:54:00",4.6,3.1,0.0,0.0,0,1023.2,0,3,"",90
"2013-11-30 02:55:00",4.7,3.2,0.0,0.0,0,1023.2,1,3,"",90
"2013-11-30 02:56:00",4.6,3.1,0.0,0.0,0,1023.3,0,1,"",90
"2013-11-30 02:57:00",4.6,3.1,0.0,0.0,0,1023.2,0,1,"",90
"2013-11-30 02:58:00",4.6,3.1,0.0,0.0,0,1023.2,0,1,"",90
"2013-11-30 02:59:00",4.6,3.1,0.0,0.0,0,1023.2,1,4,"",90
"2013-11-30 03:00:00",4.6,3.3,0.0,0.0,0,1023.3,1,1,"",91
"2013-11-30 03:01:00",4.6,3.2,0.0,0.0,0,1023.2,0,0,"",91
"2013-11-30 03:02:00",4.6,3.2,0.0,0.0,0,1023.2,0,0,"",91
"2013-11-30 03:03:00",4.6,3.2,0.0,0.0,0,1023.2,0,0,"",91
"2013-11-30 03:04:00",4.6,3.2,0.0,0.0,0,1023.2,0,1,"",91
"2013-11-30 03:05:00",4.6,3.2,0.0,0.0,0,1023.2,1,1,"",91
"2013-11-30 03:06:00",4.6,3.2,0.0,0.0,0,1023.2,0,1,"",91
"2013-11-30 03:07:00",4.6,3.2,0.0,0.0,0,1023.2,0,0,"",91
"2013-11-30 03:08:00",4.6,3.2,0.0,0.0,0,1023.2,0,0,"",91
"2013-11-30 03:09:00",4.6,3.2,0.0,0.0,0,1023.2,0,3,"",91
"2013-11-30 03:10:00",4.6,3.2,0.0,0.0,0,1023.2,0,1,"",91
"2013-11-30 03:11:00",4.5,3.2,0.0,0.0,0,1023.3,0,0,"",91
"2013-11-30 03:12:00",4.5,3.2,0.0,0.0,0,1023.3,0,0,"",91
"2013-11-30 03:13:00",4.5,3.2,0.0,0.0,0,1023.2,0,0,"",91
"2013-11-30 03:14:00",4.5,3.2,0.0,0.0,0,1023.2,0,1,"",91
"2013-11-30 03:15:00",4.5,3.2,0.0,0.0,0,1023.3,0,1,"",91
"2013-11-30 03:16:00",4.5,3.2,0.0,0.0,0,1023.3,0,1,"",91
"2013-11-30 03:17:00",4.5,3.2,0.0,0.0,0,1023.3,0,1,"",91
"2013-11-30 03:18:00",4.5,3.2,0.0,0.0,0,1023.3,0,0,"",91
"2013-11-30 03:19:00",4.5,3.2,0.0,0.0,0,1023.3,0,0,"",91
"2013-11-30 03:20:00",4.5,3.2,0.0,0.0,0,1023.3,0,1,"",91
"2013-11-30 03:21:00",4.5,3.2,0.0,0.0,0,1023.4,0,1,"",91
"2013-11-30 03:22:00",4.5,3.2,0.0,0.0,0,1023.3,0,1,"",91
"2013-11-30 03:23:00",4.5,3.1,0.0,0.0,0,1023.3,0,0,"",91
"2013-11-30 03:24:00",4.4,3.1,0.0,0.0,0,1023.4,0,0,"",91
"2013-11-30 03:25:00",4.4,3.1,0.0,0.0,0,1023.4,0,0,"",91
"2013-11-30 03:26:00",4.4,3.1,0.0,0.0,0,1023.3,0,1,"",91
"2013-11-30 03:27:00",4.4,3.1,0.0,0.0,0,1023.4,0,1,"",91
"2013-11-30 03:28:00",4.4,3.1,0.0,0.0,0,1023.4,0,1,"",91
"2013-11-30 03:29:00",4.4,3.1,0.0,0.0,0,1023.3,0,0,"",91
"2013-11-30 03:30:00",4.4,3.1,0.0,0.0,0,1023.3,0,0,"",91
"2013-11-30 03:31:00",4.4,3.1,0.0,0.0,0,1023.3,0,1,"",91
"2013-11-30 03:32:00",4.4,3.1,0.0,0.0,0,1023.3,0,1,"",91
"2013-11-30 03:33:00",4.4,3.0,0.0,0.0,0,1023.4,0,1,"",91
"2013-11-30 03:34:00",4.4,3.0,0.0,0.0,0,1023.3,0,0,"",91
"2013-11-30 03:35:00",4.4,3.0,0.0,0.0,0,1023.4,0,1,"",91
"2013-11-30 03:36:00",4.4,2.9,0.0,0.0,0,1023.4,0,3,"",90
"2013-11-30 03:37:00",4.3,3.0,0.0,0.0,0,1023.5,0,1,"",91
"2013-11-30 03:38:00",4.3,2.8,0.0,0.0,0,1023.4,0,1,"",90
"2013-11-30 03:39:00",4.3,3.0,0.0,0.0,0,1023.5,0,0,"",91
"2013-11-30 03:40:00",4.3,3.0,0.0,0.0,0,1023.5,0,1,"",91
"2013-11-30 03:41:00",4.3,3.0,0.0,0.0,0,1023.5,0,0,"",91
"2013-11-30 03:42:00",4.3,3.0,0.0,0.0,0,1023.5,0,0,"",91
"2013-11-30 03:43:00",4.3,3.0,0.0,0.0,0,1023.5,0,0,"",91
"2013-11-30 03:44:00",4.3,3.0,0.0,0.0,0,1023.5,0,0,"",91
"2013-11-30 03:45:00",4.3,3.0,0.0,0.0,0,1023.6,0,0,"",91
"2013-11-30 03:46:00",4.3,2.9,0.0,0.0,0,1023.5,0,0,"",91
"2013-11-30 03:47:00",4.3,2.9,0.0,0.0,0,1023.5,0,0,"",91
"2013-11-30 03:48:00",4.3,2.9,0.0,0.0,0,1023.6,0,0,"",91
"2013-11-30 03:49:00",4.3,2.9,0.0,0.0,0,1023.5,0,0,"",91
"2013-11-30 03:50:00",4.3,2.9,0.0,0.0,0,1023.6,0,0,"",91
"2013-11-30 03:51:00",4.3,2.9,0.0,0.0,0,1023.6,0,0,"",91
"2013-11-30 03:52:00",4.2,2.9,0.0,0.0,0,1023.7,0,1,"",91
"2013-11-30 03:53:00",4.2,2.9,0.0,0.0,0,1023.7,0,1,"",91
"2013-11-30 03:54:00",4.2,2.9,0.0,0.0,0,1023.6,0,0,"",91
"2013-11-30 03:55:00",4.2,2.9,0.0,0.0,0,1023.7,0,0,"",91
"2013-11-30 03:56:00",4.2,2.9,0.0,0.0,0,1023.7,0,0,"",91
"2013-11-30 03:57:00",4.2,2.9,0.0,0.0,0,1023.6,0,1,"",91
"2013-11-30 03:58:00",4.2,2.8,0.0,0.0,0,1023.6,0,1,"",91
"2013-11-30 03:59:00",4.2,2.8,0.0,0.0,0,1023.7,0,1,"",91
"2013-11-30 04:00:00",4.2,2.8,0.0,0.0,0,1023.7,0,1,"",91
"2013-11-30 04:01:00",4.2,2.8,0.0,0.0,0,1023.7,0,1,"",91
"2013-11-30 04:02:00",4.2,2.8,0.0,0.0,0,1023.7,0,0,"",91
"2013-11-30 04:03:00",4.1,2.8,0.0,0.0,0,1023.7,0,0,"",91
"2013-11-30 04:04:00",4.1,2.8,0.0,0.0,0,1023.8,0,0,"",91
"2013-11-30 04:05:00",4.1,2.8,0.0,0.0,0,1023.8,0,1,"",91
"2013-11-30 04:06:00",4.1,2.7,0.0,0.0,0,1023.7,0,1,"",91
"2013-11-30 04:07:00",4.1,2.7,0.0,0.0,0,1023.7,0,1,"",91
"2013-11-30 04:08:00",4.1,2.7,0.0,0.0,0,1023.7,0,1,"",91
"2013-11-30 04:09:00",4.1,2.7,0.0,0.0,0,1023.6,0,1,"",91
"2013-11-30 04:10:00",4.1,2.7,0.0,0.0,0,1023.7,0,0,"",91
"2013-11-30 04:11:00",4.0,2.7,0.0,0.0,0,1023.6,0,0,"",91
"2013-11-30 04:12:00",4.0,2.8,0.0,0.0,0,1023.6,0,0,"",92
"2013-11-30 04:13:00",4.0,2.8,0.0,0.0,0,1023.6,0,1,"",92
"2013-11-30 04:14:00",4.0,2.8,0.0,0.0,0,1023.7,0,0,"",92
"2013-11-30 04:15:00",4.0,2.8,0.0,0.0,0,1023.7,0,1,"",92
"2013-11-30 04:16:00",4.0,2.8,0.0,0.0,0,1023.7,0,1,"",92
"2013-11-30 04:17:00",3.9,2.6,0.0,0.0,0,1023.7,0,0,"",91
"2013-11-30 04:18:00",3.9,2.6,0.0,0.0,0,1023.7,0,1,"",91
"2013-11-30 04:19:00",3.9,2.6,0.0,0.0,0,1023.8,0,0,"",91
"2013-11-30 04:20:00",3.9,2.6,0.0,0.0,0,1023.8,0,0,"",91
"2013-11-30 04:21:00",3.9,2.6,0.0,0.0,0,1023.8,0,1,"",91
"2013-11-30 04:22:00",3.9,2.6,0.0,0.0,0,1023.9,0,1,"",91
"2013-11-30 04:23:00",3.9,2.7,0.0,0.0,0,1023.8,0,0,"",92
"2013-11-30 04:24:00",3.8,2.7,0.0,0.0,0,1023.9,0,0,"",93
"2013-11-30 04:25:00",3.8,2.7,0.0,0.0,0,1023.9,0,1,"",93
"2013-11-30 04:26:00",3.8,2.7,0.0,0.0,0,1023.9,0,1,"",93
"2013-11-30 04:27:00",3.8,2.7,0.0,0.0,0,1023.9,0,1,"",93
"2013-11-30 04:28:00",3.8,2.7,0.0,0.0,0,1023.9,0,3,"",93
"2013-11-30 04:29:00",3.8,2.7,0.0,0.0,0,1023.9,1,1,"",93
"2013-11-30 04:30:00",3.8,2.6,0.0,0.0,0,1023.9,0,1,"",92
"2013-11-30 04:31:00",3.8,2.6,0.0,0.0,0,1023.9,0,1,"",92
"2013-11-30 04:32:00",3.8,2.6,0.0,0.0,0,1023.9,0,0,"",92
"2013-11-30 04:33:00",3.8,2.6,0.0,0.0,0,1023.9,0,0,"",92
"2013-11-30 04:34:00",3.8,2.6,0.0,0.0,0,1023.9,0,0,"",92
"2013-11-30 04:35:00",3.8,2.6,0.0,0.0,0,1023.9,0,1,"",92
"2013-11-30 04:36:00",3.8,2.6,0.0,0.0,0,1023.9,0,1,"",92
"2013-11-30 04:37:00",3.8,2.6,0.0,0.0,0,1023.8,0,1,"",92
"2013-11-30 04:38:00",3.8,2.6,0.0,0.0,0,1023.8,0,0,"",92
"2013-11-30 04:39:00",3.7,2.6,0.0,0.0,0,1023.9,0,0,"",93
"2013-11-30 04:40:00",3.7,2.5,0.0,0.0,0,1023.8,0,1,"",92
"2013-11-30 04:41:00",3.7,2.5,0.0,0.0,0,1023.8,0,0,"",92
"2013-11-30 04:42:00",3.7,2.5,0.0,0.0,0,1023.9,0,0,"",92
"2013-11-30 04:43:00",3.7,2.5,0.0,0.0,0,1023.9,0,0,"",92
"2013-11-30 04:44:00",3.7,2.5,0.0,0.0,0,1023.9,0,0,"",92
"2013-11-30 04:45:00",3.7,2.5,0.0,0.0,0,1023.9,0,0,"",92
"2013-11-30 04:46:00",3.7,2.5,0.0,0.0,0,1023.9,0,0,"",92
"2013-11-30 04:47:00",3.7,2.5,0.0,0.0,0,1023.9,0,1,"",92
"2013-11-30 04:48:00",3.7,2.5,0.0,0.0,0,1023.8,0,3,"",92
"2013-11-30 04:49:00",3.7,2.5,0.0,0.0,0,1023.9,1,1,"",92
"2013-11-30 04:50:00",3.7,2.5,0.0,0.0,0,1023.9,0,1,"",92
"2013-11-30 04:51:00",3.7,2.5,0.0,0.0,0,1023.9,0,0,"",92
"2013-11-30 04:52:00",3.7,2.5,0.0,0.0,0,1023.9,0,0,"",92
"2013-11-30 04:53:00",3.7,2.5,0.0,0.0,0,1024.0,0,0,"",92
"2013-11-30 04:54:00",3.6,2.4,0.0,0.0,0,1024.0,0,0,"",92
"2013-11-30 04:55:00",3.6,2.4,0.0,0.0,0,1024.0,0,0,"",92
"2013-11-30 04:56:00",3.6,2.4,0.0,0.0,0,1024.0,0,0,"",92
"2013-11-30 04:57:00",3.6,2.4,0.0,0.0,0,1024.0,0,0,"",92
"2013-11-30 04:58:00",3.6,2.4,0.0,0.0,0,1023.9,0,1,"",92
"2013-11-30 04:59:00",3.6,2.4,0.0,0.0,0,1023.9,0,1,"",92
"2013-11-30 05:00:00",3.6,2.4,0.0,0.0,0,1023.9,0,1,"",92
"2013-11-30 05:01:00",3.6,2.4,0.0,0.0,0,1024.0,0,1,"",92
"2013-11-30 05:02:00",3.6,2.4,0.0,0.0,0,1024.0,0,1,"",92
"2013-11-30 05:03:00",3.6,2.4,0.0,0.0,0,1024.0,0,1,"",92
"2013-11-30 05:04:00",3.6,2.4,0.0,0.0,0,1024.1,0,1,"",92
"2013-11-30 05:05:00",3.6,2.4,0.0,0.0,0,1024.1,0,1,"",92
"2013-11-30 05:06:00",3.6,2.4,0.0,0.0,0,1024.1,0,3,"",92
"2013-11-30 05:07:00",3.6,2.4,0.0,0.0,0,1024.1,0,1,"",92
"2013-11-30 05:08:00",3.5,2.3,0.0,0.0,0,1024.1,0,0,"",92
"2013-11-30 05:09:00",3.5,2.3,0.0,0.0,0,1024.0,0,1,"",92
"2013-11-30 05:10:00",3.5,2.3,0.0,0.0,0,1024.1,0,1,"",92
"2013-11-30 05:11:00",3.5,2.3,0.0,0.0,0,1024.1,0,1,"",92
"2013-11-30 05:12:00",3.5,2.3,0.0,0.0,0,1024.1,0,0,"",92
"2013-11-30 05:13:00",3.5,2.3,0.0,0.0,0,1024.1,0,1,"",92
"2013-11-30 05:14:00",3.5,2.5,0.0,0.0,0,1024.1,0,0,"",93
"2013-11-30 05:15:00",3.5,2.3,0.0,0.0,0,1024.1,0,0,"",92
"2013-11-30 05:16:00",3.5,2.3,0.0,0.0,0,1024.1,0,0,"",92
"2013-11-30 05:17:00",3.5,2.5,0.0,0.0,0,1024.2,0,0,"",93
"2013-11-30 05:18:00",3.5,2.5,0.0,0.0,0,1024.2,0,0,"",93
"2013-11-30 05:19:00",3.5,2.5,0.0,0.0,0,1024.2,0,3,"",93
"2013-11-30 05:20:00",3.6,2.5,0.0,0.0,0,1024.2,1,3,"",93
"2013-11-30 05:21:00",3.6,2.5,0.0,0.0,0,1024.1,0,1,"",93
"2013-11-30 05:22:00",3.6,2.5,0.0,0.0,0,1024.1,0,0,"",93
"2013-11-30 05:23:00",3.6,2.5,0.0,0.0,0,1024.1,0,1,"",93
"2013-11-30 05:24:00",3.6,2.5,0.0,0.0,0,1024.2,0,1,"",93
"2013-11-30 05:25:00",3.6,2.5,0.0,0.0,0,1024.2,0,1,"",93
"2013-11-30 05:26:00",3.6,2.6,0.0,0.0,0,1024.2,0,1,"",93
"2013-11-30 05:27:00",3.6,2.6,0.0,0.0,0,1024.2,0,1,"",93
"2013-11-30 05:28:00",3.6,2.6,0.0,0.0,0,1024.2,0,1,"",93
"2013-11-30 05:29:00",3.7,2.6,0.0,0.0,0,1024.2,0,1,"",93
"2013-11-30 05:30:00",3.7,2.6,0.0,0.0,0,1024.2,0,3,"",93
"2013-11-30 05:31:00",3.7,2.6,0.0,0.0,0,1024.2,1,1,"",93
"2013-11-30 05:32:00",3.7,2.7,0.0,0.0,0,1024.2,0,0,"",93
"2013-11-30 05:33:00",3.7,2.7,0.0,0.0,0,1024.2,0,0,"",93
"2013-11-30 05:34:00",3.7,2.7,0.0,0.0,0,1024.2,0,3,"",93
"2013-11-30 05:35:00",3.7,2.7,0.0,0.0,0,1024.1,1,3,"",93
"2013-11-30 05:36:00",3.8,2.6,0.0,0.0,0,1024.2,0,1,"",92
"2013-11-30 05:37:00",3.8,2.6,0.0,0.0,0,1024.2,0,1,"",92
"2013-11-30 05:38:00",3.8,2.6,0.0,0.0,0,1024.2,0,3,"",92
"2013-11-30 05:39:00",3.8,2.6,0.0,0.0,0,1024.2,1,3,"",92
"2013-11-30 05:40:00",3.8,2.7,0.0,0.0,0,1024.3,1,1,"",93
"2013-11-30 05:41:00",3.8,2.7,0.0,0.0,0,1024.3,0,0,"",93
"2013-11-30 05:42:00",3.9,2.7,0.0,0.0,0,1024.3,0,1,"",92
"2013-11-30 05:43:00",3.9,2.7,0.0,0.0,0,1024.3,0,1,"",92
"2013-11-30 05:44:00",3.9,2.8,0.0,0.0,0,1024.3,0,3,"",93
"2013-11-30 05:45:00",3.9,2.8,0.0,0.0,0,1024.3,1,1,"",93
"2013-11-30 05:46:00",3.9,2.8,0.0,0.0,0,1024.4,0,1,"",93
"2013-11-30 05:47:00",4.0,2.8,0.0,0.0,0,1024.5,0,1,"",92
"2013-11-30 05:48:00",4.0,2.8,0.0,0.0,0,1024.5,0,1,"",92
"2013-11-30 05:49:00",4.0,2.8,0.0,0.0,0,1024.5,0,1,"",92
"2013-11-30 05:50:00",4.1,2.7,0.0,0.0,0,1024.5,0,1,"",91
"2013-11-30 05:51:00",4.1,2.7,0.0,0.0,0,1024.5,0,0,"",91
"2013-11-30 05:52:00",4.1,2.7,0.0,0.0,0,1024.6,0,4,"",91
"2013-11-30 05:53:00",4.1,2.7,0.0,0.0,0,1024.6,1,4,"",91
"2013-11-30 05:54:00",4.1,2.8,0.0,0.0,0,1024.6,0,1,"",91
"2013-11-30 05:55:00",4.1,2.8,0.0,0.0,0,1024.6,0,1,"",91
"2013-11-30 05:56:00",4.1,2.8,0.0,0.0,0,1024.6,0,0,"",91
"2013-11-30 05:57:00",4.2,2.8,0.0,0.0,0,1024.6,0,1,"",91
"2013-11-30 05:58:00",4.2,2.8,0.0,0.0,0,1024.6,0,0,"",91
"2013-11-30 05:59:00",4.2,2.9,0.0,0.0,0,1024.6,0,1,"",91
"2013-11-30 06:00:00",4.2,2.9,0.0,0.0,0,1024.6,0,0,"",91
"2013-11-30 06:01:00",4.2,2.9,0.0,0.0,0,1024.6,0,0,"",91
"2013-11-30 06:02:00",4.2,2.9,0.0,0.0,0,1024.6,0,1,"",91
"2013-11-30 06:03:00",4.3,2.9,0.0,0.0,0,1024.7,0,1,"",91
"2013-11-30 06:04:00",4.3,2.8,0.0,0.0,0,1024.7,0,4,"",90
"2013-11-30 06:05:00",4.3,2.8,0.0,0.0,0,1024.7,1,4,"",90
"2013-11-30 06:06:00",4.3,2.8,0.0,0.0,0,1024.7,0,1,"",90
"2013-11-30 06:07:00",4.3,2.8,0.0,0.0,0,1024.7,0,1,"",90
"2013-11-30 06:08:00",4.3,2.8,0.0,0.0,0,1024.7,0,1,"",90
"2013-11-30 06:09:00",4.3,2.8,0.0,0.0,0,1024.7,0,0,"",90
"2013-11-30 06:10:00",4.4,2.9,0.0,0.0,0,1024.6,0,4,"",90
"2013-11-30 06:11:00",4.4,2.9,0.0,0.0,0,1024.6,1,1,"",90
"2013-11-30 06:12:00",4.4,2.9,0.0,0.0,0,1024.7,0,0,"",90
"2013-11-30 06:13:00",4.4,2.9,0.0,0.0,0,1024.6,0,1,"",90
"2013-11-30 06:14:00",4.4,2.8,0.0,0.0,0,1024.6,0,0,"",89
"2013-11-30 06:15:00",4.4,2.9,0.0,0.0,0,1024.6,0,0,"",90
"2013-11-30 06:16:00",4.4,2.9,0.0,0.0,0,1024.6,0,0,"",90
"2013-11-30 06:17:00",4.4,2.8,0.0,0.0,0,1024.6,0,4,"",89
"2013-11-30 06:18:00",4.5,2.8,0.0,0.0,0,1024.7,1,4,"",89
"2013-11-30 06:19:00",4.5,2.8,0.0,0.0,0,1024.7,0,0,"",89
"2013-11-30 06:20:00",4.5,2.8,0.0,0.0,0,1024.7,0,3,"",89
"2013-11-30 06:21:00",4.5,2.8,0.0,0.0,0,1024.8,1,1,"",89
"2013-11-30 06:22:00",4.5,2.8,0.0,0.0,0,1024.8,0,1,"",89
"2013-11-30 06:23:00",4.5,2.9,0.0,0.0,0,1024.8,0,1,"",89
"2013-11-30 06:24:00",4.6,2.9,0.0,0.0,0,1024.8,0,0,"",89
"2013-11-30 06:25:00",4.6,2.9,0.0,0.0,0,1024.8,0,1,"",89
"2013-11-30 06:26:00",4.6,2.9,0.0,0.0,0,1024.8,0,1,"",89
"2013-11-30 06:27:00",4.6,2.9,0.0,0.0,0,1024.9,0,1,"",89
"2013-11-30 06:28:00",4.6,2.9,0.0,0.0,0,1024.9,0,1,"",89
"2013-11-30 06:29:00",4.6,2.9,0.0,0.0,0,1024.9,0,0,"",89
"2013-11-30 06:30:00",4.6,3.0,0.0,0.0,0,1025.0,0,1,"",89
"2013-11-30 06:31:00",4.6,3.0,0.0,0.0,0,1025.0,0,1,"",89
"2013-11-30 06:32:00",4.6,3.0,0.0,0.0,0,1025.0,0,1,"",89
"2013-11-30 06:33:00",4.6,3.0,0.0,0.0,0,1025.0,0,0,"",89
"2013-11-30 06:34:00",4.6,3.0,0.0,0.0,0,1025.0,0,0,"",89
"2013-11-30 06:35:00",4.6,3.0,0.0,0.0,0,1025.1,0,0,"",89
"2013-11-30 06:36:00",4.7,3.0,0.0,0.0,0,1025.1,0,1,"",89
"2013-11-30 06:37:00",4.7,3.0,0.0,0.0,0,1025.1,0,1,"",89
"2013-11-30 06:38:00",4.7,2.8,0.0,0.0,0,1025.1,0,1,"",87
"2013-11-30 06:39:00",4.7,3.0,0.0,0.0,0,1025.1,0,0,"",89
"2013-11-30 06:40:00",4.7,2.8,0.0,0.0,0,1025.1,0,0,"",87
"2013-11-30 06:41:00",4.7,2.9,0.0,0.0,0,1025.1,0,0,"",88
"2013-11-30 06:42:00",4.7,2.9,0.0,0.0,0,1025.0,0,0,"",88
"2013-11-30 06:43:00",4.7,2.9,0.0,0.0,0,1025.0,0,1,"",88
"2013-11-30 06:44:00",4.7,2.9,0.0,0.0,0,1025.0,0,3,"",88
"2013-11-30 06:45:00",4.7,2.9,0.0,0.0,0,1025.1,0,0,"",88
"2013-11-30 06:46:00",4.7,2.9,0.0,0.0,0,1025.1,0,1,"",88
"2013-11-30 06:47:00",4.7,2.9,0.0,0.0,0,1025.2,0,0,"",88
"2013-11-30 06:48:00",4.7,2.9,0.0,0.0,0,1025.2,0,0,"",88
"2013-11-30 06:49:00",4.7,2.9,0.0,0.0,0,1025.2,0,0,"",88
"2013-11-30 06:50:00",4.8,3.0,0.0,0.0,0,1025.2,0,1,"",88
"2013-11-30 06:51:00",4.8,3.0,0.0,0.0,0,1025.3,0,1,"",88
"2013-11-30 06:52:00",4.8,3.0,0.0,0.0,0,1025.3,0,1,"",88
"2013-11-30 06:53:00",4.8,3.0,0.0,0.0,0,1025.3,0,0,"",88
"2013-11-30 06:54:00",4.8,3.0,0.0,0.0,0,1025.3,0,4,"",88
"2013-11-30 06:55:00",4.8,2.8,0.0,0.0,0,1025.3,1,4,"",87
"2013-11-30 06:56:00",4.8,3.0,0.0,0.0,0,1025.3,0,1,"",88
"2013-11-30 06:57:00",4.8,3.0,0.0,0.0,0,1025.3,0,3,"",88
"2013-11-30 06:58:00",4.8,2.8,0.0,0.0,0,1025.4,0,0,"",87